KQA25Q FSIA-HKJK

Flight info

Callsign KQA25Q
Flight time N/A
Altitude 36000
Route UNBED T153 TIDAD DCT DANEL/N0468F350 UM311 NETAR/N0463F360 UM311 EVOGO EVOGO2C
Aircraft E190/M-SDE1E2E3FGHIJ2J3J4J5M1RWXYZ/LB1D1

Departure

Time 2026-04-26 13:14
Airport Seychelles International Airport (FSIA)

Arrival

Time N/A
Airport Jomo Kenyatta International Airport (HKJK)
Time Latitude Longitude Altitude Speed Heading
2026-04-26 12:58 -4.67024 55.51133 19 ft 0 kts 215°
2026-04-26 13:06 -4.67025 55.51132 19 ft 0 kts 215°
2026-04-26 13:06 -4.67028 55.51130 19 ft 0 kts 215°
2026-04-26 13:07 -4.67023 55.51134 19 ft 4 kts 215°
2026-04-26 13:07 -4.67002 55.51149 19 ft 2 kts 215°
2026-04-26 13:07 -4.66999 55.51150 19 ft 0 kts 215°
2026-04-26 13:09 -4.67001 55.51150 19 ft 0 kts 206°
2026-04-26 13:09 -4.67004 55.51152 19 ft 1 kts 177°
2026-04-26 13:09 -4.67009 55.51158 21 ft 1 kts 130°
2026-04-26 13:09 -4.67008 55.51175 19 ft 4 kts 85°
2026-04-26 13:10 -4.67003 55.51221 19 ft 9 kts 95°
2026-04-26 13:10 -4.67001 55.51289 21 ft 12 kts 57°
2026-04-26 13:10 -4.66924 55.51347 19 ft 16 kts 45°
2026-04-26 13:10 -4.66938 55.51453 21 ft 18 kts 122°
2026-04-26 13:11 -4.67014 55.51569 20 ft 22 kts 123°
2026-04-26 13:11 -4.67106 55.51705 20 ft 26 kts 124°
2026-04-26 13:11 -4.67215 55.51859 22 ft 28 kts 125°
2026-04-26 13:11 -4.67330 55.52026 21 ft 29 kts 124°
2026-04-26 13:12 -4.67442 55.52187 22 ft 30 kts 124°
2026-04-26 13:12 -4.67563 55.52363 20 ft 30 kts 124°
2026-04-26 13:12 -4.67682 55.52538 19 ft 30 kts 124°
2026-04-26 13:12 -4.67799 55.52708 19 ft 28 kts 124°
2026-04-26 13:13 -4.67882 55.52851 21 ft 12 kts 110°
2026-04-26 13:13 -4.67896 55.52842 21 ft 2 kts 304°
2026-04-26 13:13 -4.67893 55.52837 21 ft 0 kts 306°
2026-04-26 13:13 -4.67873 55.52811 20 ft 23 kts 306°
2026-04-26 13:14 -4.67654 55.52497 20 ft 86 kts 304°
2026-04-26 13:14 -4.67202 55.51841 23 ft 141 kts 304°
2026-04-26 13:14 -4.66579 55.50918 205 ft 172 kts 304°
2026-04-26 13:14 -4.65920 55.49866 785 ft 189 kts 301°
2026-04-26 13:15 -4.65199 55.48672 1237 ft 212 kts 299°
2026-04-26 13:15 -4.64311 55.47412 1815 ft 228 kts 306°
2026-04-26 13:15 -4.63328 55.46135 2555 ft 234 kts 304°
2026-04-26 13:15 -4.62360 55.44825 3377 ft 234 kts 304°
2026-04-26 13:16 -4.61411 55.43505 4202 ft 235 kts 303°
2026-04-26 13:16 -4.60469 55.42157 4933 ft 238 kts 303°
2026-04-26 13:16 -4.59514 55.40793 5655 ft 240 kts 303°
2026-04-26 13:16 -4.58556 55.39413 6351 ft 243 kts 303°
2026-04-26 13:17 -4.56601 55.36605 7646 ft 247 kts 303°
2026-04-26 13:17 -4.55611 55.35184 8290 ft 250 kts 303°
2026-04-26 13:18 -4.53603 55.32297 9587 ft 259 kts 304°
2026-04-26 13:18 -4.52534 55.30761 9913 ft 285 kts 304°
2026-04-26 13:18 -4.50095 55.27254 10780 ft 323 kts 304°
2026-04-26 13:19 -4.48779 55.25363 11603 ft 329 kts 304°
2026-04-26 13:19 -4.47482 55.23500 12453 ft 332 kts 304°
2026-04-26 13:19 -4.46150 55.21590 13267 ft 336 kts 304°
2026-04-26 13:19 -4.44801 55.19651 14017 ft 342 kts 304°
2026-04-26 13:20 -4.43432 55.17688 14749 ft 346 kts 305°
2026-04-26 13:20 -4.42042 55.15695 15479 ft 351 kts 305°
2026-04-26 13:20 -4.40628 55.13665 16156 ft 358 kts 305°
2026-04-26 13:20 -4.39216 55.11591 16871 ft 363 kts 301°
2026-04-26 13:21 -4.38196 55.09217 17075 ft 382 kts 285°
2026-04-26 13:21 -4.37800 55.07442 17385 ft 389 kts 280°
2026-04-26 13:21 -4.37171 55.03865 18146 ft 397 kts 280°
2026-04-26 13:21 -4.36656 55.01131 18677 ft 402 kts 281°
2026-04-26 13:22 -4.36101 54.98376 19197 ft 406 kts 281°
2026-04-26 13:22 -4.35528 54.95610 19824 ft 405 kts 281°
2026-04-26 13:22 -4.34948 54.92828 20317 ft 409 kts 281°
2026-04-26 13:22 -4.34366 54.90028 20876 ft 411 kts 281°
2026-04-26 13:23 -4.33779 54.87208 21295 ft 417 kts 281°
2026-04-26 13:23 -4.33189 54.84352 21749 ft 420 kts 281°
2026-04-26 13:23 -4.32594 54.81477 22229 ft 424 kts 281°
2026-04-26 13:23 -4.31996 54.78581 22747 ft 426 kts 281°
2026-04-26 13:24 -4.31393 54.75666 23212 ft 428 kts 281°
2026-04-26 13:24 -4.30794 54.72768 23581 ft 432 kts 281°
2026-04-26 13:24 -4.30178 54.69780 24026 ft 433 kts 281°
2026-04-26 13:24 -4.29566 54.66825 24411 ft 435 kts 281°
2026-04-26 13:25 -4.28950 54.63846 24748 ft 437 kts 281°
2026-04-26 13:25 -4.28341 54.60893 25072 ft 440 kts 281°
2026-04-26 13:25 -4.27712 54.57842 25432 ft 442 kts 281°
2026-04-26 13:25 -4.27099 54.54867 25818 ft 442 kts 281°
2026-04-26 13:26 -4.26476 54.51842 26142 ft 444 kts 281°
2026-04-26 13:26 -4.25850 54.48808 26456 ft 446 kts 281°
2026-04-26 13:26 -4.25221 54.45757 26752 ft 448 kts 281°
2026-04-26 13:26 -4.24591 54.42696 27079 ft 450 kts 281°
2026-04-26 13:27 -4.23957 54.39619 27389 ft 451 kts 281°
2026-04-26 13:27 -4.23323 54.36536 27732 ft 452 kts 281°
2026-04-26 13:27 -4.22686 54.33445 28028 ft 454 kts 281°
2026-04-26 13:27 -4.22048 54.30342 28328 ft 456 kts 281°
2026-04-26 13:28 -4.21407 54.27229 28632 ft 457 kts 281°
2026-04-26 13:28 -4.20766 54.24113 28897 ft 459 kts 281°
2026-04-26 13:28 -4.20122 54.20980 29238 ft 458 kts 281°
2026-04-26 13:28 -4.19479 54.17863 29668 ft 455 kts 281°
2026-04-26 13:29 -4.18840 54.14762 30013 ft 454 kts 281°
2026-04-26 13:29 -4.18418 54.12709 30169 ft 454 kts 281°
2026-04-26 13:29 -4.17565 54.08559 30495 ft 454 kts 281°
2026-04-26 13:29 -4.16929 54.05465 30757 ft 454 kts 281°
2026-04-26 13:30 -4.16293 54.02374 31025 ft 453 kts 281°
2026-04-26 13:30 -4.15658 53.99287 31293 ft 452 kts 282°
2026-04-26 13:30 -4.15024 53.96200 31498 ft 453 kts 282°
2026-04-26 13:30 -4.14391 53.93109 31745 ft 453 kts 281°
2026-04-26 13:31 -4.13757 53.90018 31987 ft 453 kts 282°
2026-04-26 13:31 -4.13120 53.86929 32242 ft 452 kts 282°
2026-04-26 13:31 -4.12484 53.83843 32490 ft 452 kts 282°
2026-04-26 13:31 -4.11849 53.80754 32718 ft 453 kts 282°
2026-04-26 13:32 -4.11215 53.77669 32987 ft 452 kts 282°
2026-04-26 13:32 -4.10579 53.74581 33241 ft 451 kts 282°
2026-04-26 13:32 -4.09949 53.71518 33564 ft 448 kts 282°
2026-04-26 13:32 -4.09323 53.68468 33829 ft 446 kts 283°
2026-04-26 13:33 -4.08697 53.65421 33982 ft 447 kts 283°
2026-04-26 13:33 -4.08070 53.62373 34168 ft 447 kts 282°
2026-04-26 13:33 -4.07444 53.59325 34346 ft 446 kts 282°
2026-04-26 13:33 -4.06829 53.56327 34527 ft 446 kts 282°
2026-04-26 13:34 -4.06199 53.53247 34697 ft 445 kts 282°
2026-04-26 13:34 -4.05593 53.50249 34882 ft 444 kts 283°
2026-04-26 13:34 -4.04974 53.47222 35009 ft 444 kts 282°
2026-04-26 13:35 -4.03720 53.41176 35348 ft 443 kts 283°
2026-04-26 13:35 -4.03096 53.38152 35487 ft 443 kts 283°
2026-04-26 13:35 -4.02475 53.35135 35647 ft 443 kts 282°
2026-04-26 13:35 -4.01859 53.32122 35907 ft 438 kts 282°
2026-04-26 13:36 -4.01249 53.29140 36027 ft 439 kts 282°
2026-04-26 13:36 -4.00002 53.23087 35868 ft 450 kts 283°
2026-04-26 13:37 -3.98732 53.16904 35870 ft 457 kts 282°
2026-04-26 13:37 -3.97437 53.10635 35885 ft 462 kts 284°
2026-04-26 13:38 -3.95872 53.04351 35881 ft 467 kts 285°
2026-04-26 13:38 -3.94274 52.98009 35880 ft 472 kts 284°
2026-04-26 13:39 -3.92708 52.91631 35876 ft 470 kts 284°
2026-04-26 13:39 -3.91125 52.85272 35878 ft 471 kts 284°
2026-04-26 13:40 -3.89815 52.79984 35878 ft 471 kts 284°
2026-04-26 13:40 -3.88240 52.73616 35881 ft 471 kts 284°
2026-04-26 13:41 -3.86667 52.67250 35882 ft 471 kts 284°
2026-04-26 13:41 -3.85093 52.60891 35881 ft 470 kts 284°
2026-04-26 13:42 -3.83517 52.54528 35879 ft 471 kts 284°
2026-04-26 13:42 -3.81938 52.48152 35884 ft 473 kts 284°
2026-04-26 13:43 -3.80356 52.41752 35881 ft 473 kts 283°
2026-04-26 13:43 -3.79242 52.35255 35891 ft 474 kts 278°
2026-04-26 13:44 -3.78355 52.28721 35880 ft 472 kts 279°
2026-04-26 13:44 -3.77281 52.22232 35883 ft 473 kts 280°
2026-04-26 13:45 -3.76250 52.15735 35882 ft 472 kts 279°
2026-04-26 13:45 -3.75254 52.09277 35882 ft 473 kts 280°
2026-04-26 13:46 -3.74238 52.02771 35884 ft 472 kts 280°
2026-04-26 13:46 -3.73227 51.96279 35880 ft 471 kts 280°
2026-04-26 13:47 -3.72217 51.89791 35884 ft 472 kts 280°
2026-04-26 13:47 -3.71209 51.83307 35881 ft 471 kts 279°
2026-04-26 13:48 -3.70199 51.76822 35880 ft 471 kts 280°
2026-04-26 13:48 -3.69186 51.70341 35884 ft 471 kts 280°
2026-04-26 13:49 -3.68174 51.63858 35883 ft 471 kts 280°
2026-04-26 13:49 -3.67168 51.57372 35883 ft 471 kts 280°
2026-04-26 13:50 -3.66158 51.50896 35890 ft 471 kts 279°
2026-04-26 13:50 -3.65146 51.44421 35888 ft 471 kts 279°
2026-04-26 13:51 -3.64127 51.37944 35888 ft 471 kts 279°
2026-04-26 13:51 -3.63121 51.31466 35889 ft 471 kts 279°
2026-04-26 13:52 -3.62111 51.24995 35891 ft 470 kts 280°
2026-04-26 13:52 -3.61101 51.18531 35892 ft 470 kts 280°
2026-04-26 13:53 -3.60091 51.12064 35891 ft 470 kts 280°
2026-04-26 13:53 -3.59081 51.05594 35892 ft 471 kts 280°
2026-04-26 13:54 -3.58074 50.99135 35886 ft 470 kts 279°
2026-04-26 13:54 -3.57063 50.92704 35888 ft 471 kts 279°
2026-04-26 13:55 -3.55704 50.84061 35890 ft 470 kts 280°
2026-04-26 13:56 -3.54020 50.73315 35892 ft 470 kts 280°
2026-04-26 13:56 -3.53006 50.66854 35895 ft 470 kts 280°
2026-04-26 13:57 -3.51990 50.60391 35894 ft 470 kts 280°
2026-04-26 13:57 -3.50975 50.53923 35892 ft 470 kts 280°
2026-04-26 13:58 -3.49960 50.47456 35893 ft 471 kts 279°
2026-04-26 13:58 -3.48942 50.40987 35893 ft 470 kts 280°
2026-04-26 13:59 -3.47922 50.34518 35893 ft 471 kts 280°
2026-04-26 13:59 -3.46904 50.28042 35893 ft 471 kts 280°
2026-04-26 14:00 -3.44866 50.15102 35900 ft 471 kts 280°
2026-04-26 14:01 -3.43850 50.08657 35896 ft 471 kts 280°
2026-04-26 14:01 -3.42831 50.02185 35896 ft 471 kts 280°
2026-04-26 14:02 -3.41809 49.95705 35896 ft 471 kts 280°
2026-04-26 14:02 -3.40788 49.89223 35895 ft 472 kts 280°
2026-04-26 14:03 -3.39766 49.82745 35899 ft 472 kts 280°
2026-04-26 14:03 -3.38743 49.76261 35900 ft 471 kts 280°
2026-04-26 14:04 -3.37719 49.69770 35899 ft 472 kts 280°
2026-04-26 14:04 -3.36695 49.63278 35899 ft 472 kts 280°
2026-04-26 14:05 -3.35668 49.56781 35900 ft 472 kts 280°
2026-04-26 14:05 -3.34644 49.50291 35900 ft 473 kts 280°
2026-04-26 14:06 -3.33616 49.43788 35902 ft 473 kts 280°
2026-04-26 14:06 -3.32587 49.37280 35903 ft 473 kts 280°
2026-04-26 14:07 -3.31558 49.30779 35902 ft 473 kts 280°
2026-04-26 14:07 -3.30531 49.24302 35902 ft 475 kts 280°
2026-04-26 14:08 -3.29500 49.17784 35897 ft 474 kts 280°
2026-04-26 14:08 -3.28468 49.11266 35901 ft 474 kts 280°
2026-04-26 14:09 -3.27433 49.04744 35901 ft 475 kts 280°
2026-04-26 14:09 -3.26397 48.98217 35899 ft 475 kts 280°
2026-04-26 14:10 -3.25362 48.91687 35900 ft 475 kts 280°
2026-04-26 14:10 -3.24328 48.85166 35902 ft 475 kts 280°
2026-04-26 14:11 -3.22773 48.75376 35901 ft 474 kts 280°
2026-04-26 14:11 -3.21737 48.68857 35901 ft 475 kts 280°
2026-04-26 14:12 -3.20701 48.62341 35901 ft 474 kts 280°
2026-04-26 14:12 -3.19666 48.55825 35901 ft 474 kts 280°
2026-04-26 14:13 -3.18109 48.46045 35901 ft 474 kts 280°
2026-04-26 14:14 -3.17072 48.39533 35900 ft 474 kts 280°
2026-04-26 14:14 -3.16043 48.33067 35904 ft 474 kts 280°
2026-04-26 14:15 -3.15007 48.26561 35906 ft 474 kts 280°
2026-04-26 14:15 -3.13970 48.20053 35905 ft 474 kts 280°
2026-04-26 14:16 -3.12932 48.13546 35901 ft 474 kts 280°
2026-04-26 14:16 -3.11894 48.07036 35902 ft 474 kts 280°
2026-04-26 14:17 -3.10855 48.00524 35900 ft 474 kts 280°
2026-04-26 14:17 -3.09816 47.94019 35901 ft 474 kts 280°
2026-04-26 14:18 -3.08776 47.87508 35904 ft 473 kts 280°
2026-04-26 14:18 -3.07736 47.80997 35904 ft 473 kts 280°
2026-04-26 14:19 -3.06697 47.74495 35901 ft 473 kts 280°
2026-04-26 14:19 -3.05666 47.68044 35903 ft 473 kts 280°
2026-04-26 14:20 -3.04627 47.61550 35905 ft 473 kts 280°
2026-04-26 14:20 -3.03589 47.55059 35906 ft 473 kts 281°
2026-04-26 14:21 -3.02547 47.48557 35904 ft 473 kts 281°
2026-04-26 14:21 -3.01507 47.42057 35905 ft 473 kts 281°
2026-04-26 14:22 -3.00471 47.35562 35904 ft 473 kts 281°
2026-04-26 14:22 -2.99431 47.29061 35906 ft 473 kts 281°
2026-04-26 14:23 -2.98391 47.22556 35905 ft 473 kts 281°